Flag for Germany Weather past 2 weeks in Eschweiler, North Rhine-Westphalia, Germany

Now
57 °F

Scattered clouds.


Feels Like: 56 °F
Forecast: 43 / 62 °F
Wind: 5 mph from North

Location: Noervenich

Current Time: Sep 22, 2014 at 5:08:08 PM

Latest Report: Sep 22, 2014 at 4:00 PM


Visibility: 13 mi

Pressure: 30.14 "Hg

Humidity: 74%

Dew point: 49 °F

Location of EschweilerLocation

Historic Weather in Eschweiler — Graph

°F

Eschweiler temperature yesterday

Maximum temperature yesterday: 64 °F (at 12:00 AM)
Minimum temperature yesterday: 54 °F (at 10:00 PM)
Average temperature yesterday: 60 °F

Past Weeks' High & Low Weather Summary

 TemperatureHumidityPressure
High77 °F (Sep 17, 4:00 PM)98% (Sep 17, 6:00 AM)30.25 "Hg (Sep 17, 6:00 AM)
Low47 °F (Sep 12, 7:00 AM)51% (Sep 17, 4:00 PM)29.81 "Hg (Sep 18, 6:00 PM)
Average61 °F82%30.04 "Hg
* Reported Sep 7 4:00 PM — Sep 22 4:00 PM, Eschweiler, Weather by CustomWeather, © 2014

Note: Actual official high and low records may vary slightly from our data, if they occured in-between our weather recording intervals... More about our weather records

Advertising

Eschweiler weather history for previous 24 hours

 ConditionsComfort  
Time TempWeatherWind HumidityBarometerVisibility
4:00 PM
Sep 22
57 °FScattered clouds.5 mph74%30.14 "Hg12 mi
3:00 PMN/APassing clouds.N/AN/AN/A1 mi
2:00 PM58 °FRain showers. Overcast.8 mph64%30.11 "Hg3 mi
1:00 PM59 °FOvercast.8 mph63%30.11 "Hg12 mi
12:00 PM58 °FOvercast.7 mph67%30.11 "Hg12 mi
10:00 AM55 °FOvercast.5 mph74%30.13 "Hg9 mi
9:00 AM53 °FOvercast.6 mph81%30.13 "Hg9 mi
8:00 AM53 °FOvercast.3 mph84%30.14 "Hg9 mi
7:00 AM53 °FOvercast.3 mph85%30.14 "Hg12 mi
6:00 AM53 °FOvercast.5 mph90%30.14 "Hg19 mi
4:00 AM54 °FPassing clouds.5 mph91%30.15 "Hg19 mi
3:00 AM53 °FSprinkles. Overcast.5 mph94%30.16 "Hg12 mi
2:00 AMN/APassing clouds.N/AN/AN/A2 mi
1:00 AM53 °FPassing clouds.3 mph88%30.15 "Hg19 mi
12:00 AM53 °FPassing clouds.3 mph86%30.14 "Hg19 mi
10:00 PM
Sep 21
54 °FPassing clouds.2 mph82%30.13 "Hg19 mi
9:00 PM57 °FOvercast.5 mph73%30.11 "Hg19 mi
8:00 PM58 °FOvercast.5 mph72%30.09 "Hg19 mi
7:00 PM61 °FPartly sunny.5 mph69%30.07 "Hg19 mi
6:00 PM63 °FPassing clouds.5 mph65%30.05 "Hg19 mi
Weather by CustomWeather, © 2014

See weather overviewHow to use our weather pages